sat.trackr.live / text

‹ back to catalog

TRANSPORTER-13 OBJECT AH

NORAD 63241 · 2025-052AH

PAYLOAD ACTIVE UNKNOWN

§ Identity

Operator
Country
TBD
Launch date
2025-03-15
Launch site
AFWTR
Launch vehicle
Mass (kg)
RCS (m²)

External: N2YO · Heavens-Above · Gunter

§ Orbital elements

Epoch: 2026-05-25T05:14:04.206336Z

Period
94.29 min
Inclination
97.3877°
Eccentricity
0.0005184
Mean motion
15.27148349 rev/d
Perigee alt
480.8 km
Apogee alt
487.9 km
Semi-major
6,862.5 km
B*
3.7496e-4
RAAN
38.8968°
Arg perigee
228.8692°
Mean anomaly
131.2100°
Rev number
6,643

§ Raw data

TRANSPORTER-13 OBJECT AH1 63241U 25052AH  26145.21810424  .00009915  00000+0  37496-3 0  99952 63241  97.3877  38.8968 0005184 228.8692 131.2100 15.27148349 66437

JSON: /api/v1/satellites/63241 · /tle

For live sub-satellite position, see the globe view (requires WebGL).

§ Visibility from observer

Set your observer location to see the next 7 days of passes ≥ 10°. The values pass through the URL so the page stays shareable.

No JS? Fill the form by hand. The geolocation button needs JavaScript.